When you browse on this site, cookies collect data to enhance your experience and personalize the content and advertising you see.
Visit our Privacy Policy to learn more. By continuing to use the site, you agree to this use of cookies and data.
  • In Austria
  • List of Countries
  • For 7 days
  • Water Temperature
  • Weather Map
  • News
  • Weather Widgets
  • user-avatar
    Login

    Hourly Weather Liverpool

    Today, 29 January, Wednesday

    Time Temperature Precipitation Wind Pressure Humidity
    00:00 -8°C° 0 mm 5 mps 751 mmHg 87%
    01:00 -8°C° 0 mm 5 mps 751 mmHg 87%
    02:00 -8°C° 0 mm 5 mps 752 mmHg 89%
    03:00 -8°C° 0 mm 5 mps 752 mmHg 89%
    04:00 -8°C° 0 mm 4 mps 752 mmHg 89%
    05:00 -8°C° 0 mm 4 mps 752 mmHg 90%
    06:00 -8°C° 0 mm 4 mps 753 mmHg 89%
    07:00 -8°C° 0 mm 4 mps 753 mmHg 89%
    08:00 -7°C° 0 mm 4 mps 753 mmHg 89%
    09:00 -5°C° 0 mm 4 mps 754 mmHg 83%
    10:00 -4°C° 0 mm 4 mps 754 mmHg 78%
    11:00 -2°C° 0 mm 3 mps 754 mmHg 72%
    12:00 -3°C° 0 mm 4 mps 754 mmHg 69%
    13:00 -3°C° 0 mm 4 mps 754 mmHg 65%
    14:00 -4°C° 0 mm 5 mps 753 mmHg 62%
    15:00 -5°C° 0 mm 5 mps 754 mmHg 62%
    16:00 -6°C° 0 mm 6 mps 754 mmHg 63%
    17:00 -9°C° 0 mm 6 mps 755 mmHg 64%
    18:00 -9°C° 0 mm 6 mps 755 mmHg 66%
    19:00 -10°C° 0 mm 6 mps 756 mmHg 67%
    20:00 -11°C° 0 mm 6 mps 757 mmHg 68%
    21:00 -12°C° 0 mm 7 mps 757 mmHg 69%
    22:00 -13°C° 0 mm 7 mps 758 mmHg 69%
    23:00 -14°C° 0 mm 7 mps 758 mmHg 70%

    Tomorrow, 30 January, Thursday

    Time Temperature Precipitation Wind Pressure Humidity
    00:00 -15°C° 0 mm 7 mps 759 mmHg 67%
    01:00 -15°C° 0 mm 6 mps 759 mmHg 65%
    02:00 -16°C° 0 mm 6 mps 759 mmHg 63%
    03:00 -16°C° 0 mm 6 mps 760 mmHg 65%
    04:00 -15°C° 0 mm 6 mps 760 mmHg 66%
    05:00 -15°C° 0 mm 6 mps 760 mmHg 68%
    06:00 -15°C° 0 mm 6 mps 761 mmHg 70%
    07:00 -15°C° 0 mm 6 mps 761 mmHg 71%
    08:00 -15°C° 0 mm 6 mps 762 mmHg 73%
    09:00 -14°C° 0 mm 6 mps 762 mmHg 68%
    10:00 -12°C° 0 mm 6 mps 762 mmHg 63%
    11:00 -11°C° 0 mm 6 mps 763 mmHg 58%
    12:00 -10°C° 0 mm 6 mps 763 mmHg 56%
    13:00 -9°C° 0 mm 6 mps 763 mmHg 53%
    14:00 -8°C° 0 mm 6 mps 763 mmHg 51%
    15:00 -7°C° 0 mm 5 mps 763 mmHg 53%
    16:00 -8°C° 0 mm 5 mps 763 mmHg 55%
    17:00 -8°C° 0 mm 4 mps 764 mmHg 58%
    18:00 -9°C° 0 mm 4 mps 764 mmHg 62%
    19:00 -9°C° 0 mm 4 mps 765 mmHg 67%
    20:00 -9°C° 0 mm 3 mps 765 mmHg 72%
    21:00 -9°C° 0 mm 3 mps 765 mmHg 72%
    22:00 -9°C° 0 mm 3 mps 765 mmHg 73%
    23:00 -9°C° 0 mm 3 mps 765 mmHg 73%

    Day after tomorrow, 31 January, Friday

    Time Temperature Precipitation Wind Pressure Humidity
    00:00 -9°C° 0 mm 3 mps 765 mmHg 73%
    01:00 -8°C° 0 mm 3 mps 765 mmHg 73%
    02:00 -8°C° 0 mm 3 mps 765 mmHg 73%
    03:00 -9°C° 0 mm 4 mps 765 mmHg 74%
    04:00 -9°C° 0 mm 4 mps 765 mmHg 75%
    05:00 -8°C° 0 mm 4 mps 765 mmHg 76%
    06:00 -8°C° 0 mm 4 mps 765 mmHg 75%
    07:00 -7°C° 0 mm 4 mps 765 mmHg 74%
    08:00 -7°C° 0 mm 5 mps 765 mmHg 74%
    09:00 -4°C° 0 mm 5 mps 765 mmHg 70%
    10:00 -1°C° 0 mm 5 mps 765 mmHg 66%
    11:00 +1°C° 0 mm 6 mps 765 mmHg 62%
    12:00 +1°C° 0 mm 6 mps 764 mmHg 61%
    13:00 +2°C° 0 mm 5 mps 764 mmHg 60%
    14:00 +3°C° 0 mm 5 mps 764 mmHg 58%
    15:00 +2°C° 0 mm 5 mps 764 mmHg 63%
    16:00 0°C° 0 mm 4 mps 763 mmHg 67%
    17:00 -1°C° 0 mm 4 mps 763 mmHg 71%
    18:00 -2°C° 0 mm 4 mps 764 mmHg 75%
    19:00 -4°C° 0 mm 3 mps 764 mmHg 79%
    20:00 -5°C° 0 mm 3 mps 764 mmHg 83%
    21:00 -5°C° 0 mm 3 mps 764 mmHg 79%
    22:00 -6°C° 0 mm 3 mps 764 mmHg 76%
    23:00 -5°C° 0 mm 2 mps 764 mmHg 73%

    1 February, Saturday

    Time Temperature Precipitation Wind Pressure Humidity
    00:00 -5°C° 0 mm 2 mps 764 mmHg 72%
    01:00 -3°C° 0 mm 1 mps 764 mmHg 71%
    02:00 -3°C° 0 mm 1 mps 764 mmHg 71%
    03:00 -3°C° 0 mm 1 mps 763 mmHg 70%
    04:00 -3°C° 0 mm 1 mps 763 mmHg 70%
    05:00 -3°C° 0 mm 1 mps 762 mmHg 70%
    06:00 -3°C° 0 mm 1 mps 762 mmHg 69%
    07:00 -2°C° 0 mm 1 mps 762 mmHg 69%
    08:00 -2°C° 0 mm 1 mps 763 mmHg 69%
    09:00 -3°C° 0 mm 2 mps 762 mmHg 67%
    10:00 -1°C° 0 mm 2 mps 762 mmHg 65%
    11:00 0°C° 0 mm 3 mps 762 mmHg 63%
    12:00 0°C° 0.1 mm 3 mps 761 mmHg 71%
    13:00 0°C° 0.1 mm 3 mps 760 mmHg 79%
    14:00 0°C° 0.1 mm 3 mps 760 mmHg 86%
    15:00 0°C° 0.1 mm 3 mps 759 mmHg 90%
    16:00 0°C° 0.1 mm 3 mps 758 mmHg 94%
    17:00 0°C° 0.1 mm 3 mps 758 mmHg 97%
    18:00 0°C° 0 mm 3 mps 757 mmHg 97%
    19:00 0°C° 0 mm 3 mps 756 mmHg 97%
    20:00 -1°C° 0 mm 4 mps 756 mmHg 97%
    21:00 -1°C° 0.1 mm 4 mps 755 mmHg 97%
    22:00 -1°C° 0.1 mm 5 mps 754 mmHg 98%
    23:00 -1°C° 0.1 mm 5 mps 753 mmHg 98%

    2 February, Sunday

    Time Temperature Precipitation Wind Pressure Humidity
    00:00 -3°C° 0.2 mm 6 mps 751 mmHg 97%
    01:00 -3°C° 0.2 mm 7 mps 750 mmHg 96%
    02:00 -3°C° 0.2 mm 7 mps 749 mmHg 95%
    03:00 -4°C° 0.1 mm 7 mps 749 mmHg 93%
    04:00 -4°C° 0.1 mm 7 mps 749 mmHg 91%
    05:00 -5°C° 0.1 mm 6 mps 749 mmHg 89%
    06:00 -5°C° 0 mm 6 mps 748 mmHg 86%
    07:00 -6°C° 0 mm 6 mps 748 mmHg 83%
    08:00 -6°C° 0 mm 6 mps 748 mmHg 80%
    09:00 -5°C° 0 mm 6 mps 748 mmHg 72%
    10:00 -4°C° 0 mm 6 mps 748 mmHg 65%
    11:00 -2°C° 0 mm 5 mps 749 mmHg 57%
    12:00 -1°C° 0 mm 5 mps 748 mmHg 56%
    13:00 -1°C° 0 mm 5 mps 748 mmHg 54%
    14:00 -1°C° 0 mm 5 mps 747 mmHg 53%
    15:00 -2°C° 0 mm 5 mps 747 mmHg 58%
    16:00 -2°C° 0 mm 5 mps 747 mmHg 62%
    17:00 -4°C° 0 mm 5 mps 746 mmHg 67%
    18:00 -5°C° 0 mm 5 mps 747 mmHg 71%
    19:00 -6°C° 0 mm 5 mps 747 mmHg 75%
    20:00 -6°C° 0 mm 5 mps 748 mmHg 79%
    21:00 -7°C° 0 mm 4 mps 748 mmHg 79%
    22:00 -7°C° 0 mm 4 mps 748 mmHg 80%
    23:00 -7°C° 0 mm 4 mps 748 mmHg 80%

    3 February, Monday

    Time Temperature Precipitation Wind Pressure Humidity
    00:00 -7°C° 0 mm 4 mps 749 mmHg 82%
    01:00 -5°C° 0 mm 4 mps 749 mmHg 83%
    02:00 -6°C° 0 mm 5 mps 749 mmHg 85%
    03:00 -6°C° 0 mm 5 mps 749 mmHg 86%
    04:00 -6°C° 0 mm 5 mps 748 mmHg 87%
    05:00 -6°C° 0 mm 5 mps 748 mmHg 87%
    06:00 -4°C° 0 mm 4 mps 748 mmHg 86%
    07:00 -3°C° 0 mm 4 mps 748 mmHg 86%
    08:00 -2°C° 0 mm 4 mps 748 mmHg 85%
    09:00 -1°C° 0.1 mm 5 mps 748 mmHg 79%
    10:00 -1°C° 0.1 mm 6 mps 748 mmHg 72%
    11:00 +1°C° 0.1 mm 8 mps 748 mmHg 66%
    12:00 +1°C° 0 mm 8 mps 748 mmHg 65%
    13:00 +2°C° 0 mm 7 mps 748 mmHg 64%
    14:00 +3°C° 0 mm 7 mps 749 mmHg 63%
    15:00 +2°C° 0 mm 7 mps 749 mmHg 66%
    16:00 +1°C° 0 mm 6 mps 750 mmHg 68%
    17:00 +1°C° 0 mm 5 mps 751 mmHg 70%
    18:00 0°C° 0 mm 5 mps 752 mmHg 67%
    19:00 -2°C° 0 mm 6 mps 753 mmHg 63%
    20:00 -3°C° 0 mm 6 mps 754 mmHg 60%
    21:00 -3°C° 0 mm 6 mps 755 mmHg 61%
    22:00 -2°C° 0 mm 5 mps 755 mmHg 63%
    23:00 -4°C° 0 mm 5 mps 756 mmHg 65%
    Show more